User: anonymous   Login
Location: Grasslands National Park East Block
(49.0708°N, 106.5295°W)
Time: 07:50:09
(UTC-06:00)
Language:

AO-73 - Orbit

View from above orbital plane
View from above orbital plane
View from above satellite
View from above satellite

Ground track
Ground track

The orbit data is extracted from the following two-line orbital elements,

1 39444U 13066AE  19262.74836253  .00000187  00000-0  29177-4 0  9994
2 39444  97.5602 273.0552 0059625  82.5984 278.2001 14.81973705313712
Epoch (UTC): 19 September 2019 17:57:38
Eccentricity: 0.0059625
inclination: 97.5602°
perigee height: 581 km
apogee height: 665 km
right ascension of ascending node: 273.0552°
argument of perigee: 82.5984°
revolutions per day: 14.81973705
mean anomaly at epoch: 278.2001°
orbit number at epoch: 31371

The dashed part of the orbit path shows where the satellite is in the earth's shadow,  

DLR